This is the latest recevied weather packets stored in our database for station/object KC0OOO-WX. If no packets are shown the sender has not sent any weather packets the latest 10 day(s).
| Time | Temp. | Humidity | Pressure | Rain* | Wind** | Luminosity | Snow |
|---|---|---|---|---|---|---|---|
| 1777566517 | 12.78° C | 31% | 1017.9 hPa | 0 mm | - | - | - |
| 1777565917 | 11.67° C | 35% | 1017.9 hPa | 0 mm | - | - | - |
| 1777565317 | 11.67° C | 34% | 1017.9 hPa | 0 mm | - | - | - |
| 1777564687 | 10.56° C | 34% | 1018.3 hPa | 0 mm | - | - | - |
| 1777564087 | 10° C | 37% | 1018.3 hPa | 0 mm | - | - | - |
| 1777563487 | 8.89° C | 37% | 1018.3 hPa | 0 mm | - | - | - |
| 1777562887 | 7.78° C | 38% | 1018.3 hPa | 0 mm | - | - | - |
| 1777562287 | 7.22° C | 45% | 1018.3 hPa | 0 mm | - | - | - |
| 1777561687 | 6.67° C | 50% | 1018.3 hPa | 0 mm | - | - | - |
| 1777561086 | 6.11° C | 53% | 1018.6 hPa | 0 mm | - | - | - |
| 1777560487 | 5° C | 55% | 1018.6 hPa | 0 mm | - | - | - |
| 1777559886 | 3.33° C | 59% | 1018.6 hPa | 0 mm | - | - | - |
| 1777559286 | 2.22° C | 62% | 1018.6 hPa | 0 mm | - | - | - |
| 1777558686 | 1.11° C | 66% | 1018.6 hPa | 0 mm | - | - | - |
| 1777558087 | 0.56° C | 67% | 1018.6 hPa | 0 mm | - | - | - |
| 1777557486 | 0.56° C | 67% | 1018.6 hPa | 0 mm | - | - | - |
| 1777556886 | 0.56° C | 67% | 1018.6 hPa | 0 mm | - | - | - |
| 1777556286 | 0° C | 69% | 1018.6 hPa | 0 mm | - | - | - |
| 1777555686 | 0° C | 68% | 1018.6 hPa | 0 mm | - | - | - |
| 1777555086 | 0° C | 67% | 1018.3 hPa | 0 mm | - | - | - |
| 1777554456 | -0.56° C | 67% | 1018.3 hPa | 0 mm | - | - | - |
| 1777553856 | -0.56° C | 68% | 1018.3 hPa | 0 mm | - | - | - |
| 1777553256 | -0.56° C | 67% | 1018.3 hPa | 0 mm | - | - | - |
| 1777552656 | -0.56° C | 66% | 1018.3 hPa | 0 mm | - | - | - |
| 1777552056 | -0.56° C | 65% | 1018.3 hPa | 0 mm | - | - | - |
* Rain latest hour (hover to see other rain measurements)
** Current wind speed in m/s (hover to see current wind gust speed)